Time,TemperatureF,DewpointF,PressureIn,WindDirection,WindDirectionDegrees,WindSpeedMPH,WindSpeedGustMPH,Humidity,HourlyPrecipIn,Conditions,Clouds,dailyrainin,SoftwareType,DateUTC
2013-05-02 00:07:00,59.4,56.0,30.24,WNW,298,0.0,3.0,87,0.00,,,0.00,weatherlink.com 1.10,2013-05-02 04:07:00,
2013-05-02 00:22:00,59.2,55.0,30.24,WNW,297,0.0,4.0,87,0.00,,,0.00,weatherlink.com 1.10,2013-05-02 04:22:00,
2013-05-02 00:37:00,59.3,56.0,30.24,WSW,243,1.0,6.0,87,0.00,,,0.00,weatherlink.com 1.10,2013-05-02 04:37:00,
2013-05-02 00:52:00,59.2,56.0,30.24,SSE,156,0.0,2.0,88,0.00,,,0.00,weatherlink.com 1.10,2013-05-02 04:52:00,
2013-05-02 01:07:00,59.0,56.0,30.24,WSW,245,0.0,3.0,88,0.00,,,0.00,weatherlink.com 1.10,2013-05-02 05:07:00,
2013-05-02 01:22:00,59.0,55.0,30.24,WNW,288,2.0,3.0,87,0.00,,,0.00,weatherlink.com 1.10,2013-05-02 05:22:00,
2013-05-02 01:37:00,58.9,55.0,30.23,WSW,243,1.0,4.0,86,0.00,,,0.00,weatherlink.com 1.10,2013-05-02 05:37:00,
2013-05-02 01:52:00,58.7,55.0,30.23,NNW,340,0.0,1.0,86,0.00,,,0.00,weatherlink.com 1.10,2013-05-02 05:52:00,
2013-05-02 02:07:00,58.6,55.0,30.23,WNW,283,0.0,5.0,86,0.00,,,0.00,weatherlink.com 1.10,2013-05-02 06:07:00,
2013-05-02 02:22:00,58.4,55.0,30.23,SSE,160,1.0,3.0,87,0.00,,,0.00,weatherlink.com 1.10,2013-05-02 06:22:00,
2013-05-02 02:37:00,58.4,55.0,30.22,WSW,248,0.0,5.0,87,0.00,,,0.00,weatherlink.com 1.10,2013-05-02 06:37:00,
2013-05-02 02:52:00,58.4,55.0,30.22,WNW,282,0.0,2.0,87,0.00,,,0.00,weatherlink.com 1.10,2013-05-02 06:52:00,
2013-05-02 03:08:00,58.3,55.0,30.21,West,281,0.0,0.0,87,0.00,,,0.00,weatherlink.com 1.10,2013-05-02 07:08:00,
2013-05-02 03:23:00,58.2,55.0,30.21,West,281,0.0,0.0,88,0.00,,,0.00,weatherlink.com 1.10,2013-05-02 07:23:00,
2013-05-02 03:38:00,58.1,55.0,30.21,NNW,340,1.0,4.0,88,0.00,,,0.00,weatherlink.com 1.10,2013-05-02 07:38:00,
2013-05-02 03:53:00,57.7,55.0,30.21,WNW,283,2.0,3.0,90,0.00,,,0.00,weatherlink.com 1.10,2013-05-02 07:53:00,
2013-05-02 04:08:00,57.4,55.0,30.21,West,271,1.0,1.0,91,0.00,,,0.00,weatherlink.com 1.10,2013-05-02 08:08:00,
2013-05-02 04:23:00,56.9,55.0,30.21,WNW,298,0.0,1.0,92,0.00,,,0.00,weatherlink.com 1.10,2013-05-02 08:23:00,
2013-05-02 04:38:00,56.7,55.0,30.21,NNE,30,0.0,3.0,93,0.00,,,0.00,weatherlink.com 1.10,2013-05-02 08:38:00,
2013-05-02 04:53:00,56.7,55.0,30.21,West,280,0.0,3.0,93,0.00,,,0.00,weatherlink.com 1.10,2013-05-02 08:53:00,
2013-05-02 05:08:00,56.6,55.0,30.20,West,279,1.0,1.0,93,0.00,,,0.00,weatherlink.com 1.10,2013-05-02 09:08:00,
2013-05-02 05:23:00,56.4,55.0,30.20,SW,229,2.0,2.0,94,0.00,,,0.00,weatherlink.com 1.10,2013-05-02 09:23:00,
2013-05-02 05:38:00,56.4,55.0,30.20,WNW,288,0.0,4.0,93,0.00,,,0.00,weatherlink.com 1.10,2013-05-02 09:38:00,
2013-05-02 05:53:00,56.5,55.0,30.20,SW,235,1.0,1.0,93,0.00,,,0.00,weatherlink.com 1.10,2013-05-02 09:53:00,
2013-05-02 06:08:00,56.5,55.0,30.20,WNW,288,0.0,1.0,93,0.00,,,0.00,weatherlink.com 1.10,2013-05-02 10:08:00,
2013-05-02 06:23:00,56.6,55.0,30.20,WNW,303,0.0,3.0,93,0.00,,,0.00,weatherlink.com 1.10,2013-05-02 10:23:00,
2013-05-02 06:38:00,56.7,55.0,30.21,NW,308,0.0,3.0,93,0.00,,,0.00,weatherlink.com 1.10,2013-05-02 10:38:00,
2013-05-02 06:53:00,56.6,55.0,30.21,NW,312,0.0,2.0,93,0.00,,,0.00,weatherlink.com 1.10,2013-05-02 10:53:00,
2013-05-02 07:08:00,56.6,55.0,30.21,West,280,2.0,5.0,94,0.01,,,0.01,weatherlink.com 1.10,2013-05-02 11:08:00,
2013-05-02 07:23:00,56.8,55.0,30.21,West,269,1.0,2.0,92,0.01,,,0.01,weatherlink.com 1.10,2013-05-02 11:23:00,
2013-05-02 07:38:00,57.0,55.0,30.22,North,1,0.0,3.0,92,0.01,,,0.01,weatherlink.com 1.10,2013-05-02 11:38:00,
2013-05-02 07:53:00,57.2,55.0,30.23,West,266,2.0,5.0,92,0.01,,,0.01,weatherlink.com 1.10,2013-05-02 11:53:00,
2013-05-02 08:08:00,57.6,55.0,30.23,WNW,290,0.0,3.0,90,0.00,,,0.01,weatherlink.com 1.10,2013-05-02 12:08:00,
2013-05-02 08:23:00,57.4,55.0,30.23,WSW,239,1.0,2.0,92,0.00,,,0.01,weatherlink.com 1.10,2013-05-02 12:23:00,
2013-05-02 08:38:00,57.7,55.0,30.23,WNW,297,0.0,7.0,90,0.00,,,0.01,weatherlink.com 1.10,2013-05-02 12:38:00,
2013-05-02 08:53:00,58.3,56.0,30.24,West,272,1.0,5.0,90,0.00,,,0.01,weatherlink.com 1.10,2013-05-02 12:53:00,
2013-05-02 09:08:00,58.4,55.0,30.24,West,269,0.0,5.0,89,0.00,,,0.01,weatherlink.com 1.10,2013-05-02 13:08:00,
2013-05-02 09:23:00,58.3,55.0,30.24,West,262,1.0,3.0,89,0.00,,,0.01,weatherlink.com 1.10,2013-05-02 13:23:00,
2013-05-02 09:38:00,58.9,56.0,30.24,West,281,1.0,7.0,89,0.00,,,0.01,weatherlink.com 1.10,2013-05-02 13:38:00,
2013-05-02 09:53:00,59.5,56.0,30.24,West,264,0.0,4.0,88,0.00,,,0.01,weatherlink.com 1.10,2013-05-02 13:53:00,
2013-05-02 10:08:00,59.6,56.0,30.25,WNW,300,1.0,6.0,87,0.00,,,0.01,weatherlink.com 1.10,2013-05-02 14:08:00,
2013-05-02 10:23:00,59.6,56.0,30.25,NW,304,0.0,6.0,87,0.00,,,0.01,weatherlink.com 1.10,2013-05-02 14:23:00,
2013-05-02 10:38:00,59.9,56.0,30.25,West,260,1.0,4.0,87,0.00,,,0.01,weatherlink.com 1.10,2013-05-02 14:38:00,
2013-05-02 10:53:00,59.9,56.0,30.26,North,1,1.0,4.0,87,0.00,,,0.01,weatherlink.com 1.10,2013-05-02 14:53:00,
2013-05-02 11:08:00,60.5,57.0,30.26,West,274,0.0,8.0,87,0.00,,,0.01,weatherlink.com 1.10,2013-05-02 15:08:00,
2013-05-02 11:23:00,61.5,57.0,30.25,WNW,293,0.0,4.0,85,0.00,,,0.01,weatherlink.com 1.10,2013-05-02 15:23:00,
2013-05-02 11:38:00,62.9,57.0,30.25,West,276,2.0,4.0,82,0.00,,,0.01,weatherlink.com 1.10,2013-05-02 15:38:00,
2013-05-02 11:53:00,63.4,57.0,30.25,NNW,335,1.0,7.0,79,0.00,,,0.01,weatherlink.com 1.10,2013-05-02 15:53:00,
2013-05-02 12:08:00,64.2,58.0,30.25,NE,34,1.0,5.0,79,0.00,,,0.01,weatherlink.com 1.10,2013-05-02 16:08:00,
2013-05-02 12:23:00,63.9,58.0,30.25,NNW,343,1.0,8.0,80,0.00,,,0.01,weatherlink.com 1.10,2013-05-02 16:23:00,
2013-05-02 12:38:00,64.6,59.0,30.25,WNW,283,2.0,3.0,81,0.00,,,0.01,weatherlink.com 1.10,2013-05-02 16:38:00,
2013-05-02 12:53:00,64.2,58.0,30.25,West,272,1.0,4.0,79,0.00,,,0.01,weatherlink.com 1.10,2013-05-02 16:53:00,
2013-05-02 13:08:00,64.5,58.0,30.25,West,277,3.0,6.0,80,0.00,,,0.01,weatherlink.com 1.10,2013-05-02 17:08:00,
2013-05-02 13:23:00,65.2,57.0,30.25,NW,318,1.0,7.0,76,0.00,,,0.01,weatherlink.com 1.10,2013-05-02 17:23:00,
2013-05-02 13:38:00,65.3,59.0,30.25,NW,304,1.0,5.0,79,0.00,,,0.01,weatherlink.com 1.10,2013-05-02 17:38:00,
2013-05-02 13:53:00,65.8,58.0,30.24,NW,314,2.0,6.0,76,0.00,,,0.01,weatherlink.com 1.10,2013-05-02 17:53:00,
2013-05-02 14:08:00,66.1,59.0,30.24,WSW,252,1.0,5.0,77,0.00,,,0.01,weatherlink.com 1.10,2013-05-02 18:08:00,
2013-05-02 14:24:00,67.7,60.0,30.24,NW,306,5.0,5.0,75,0.00,,,0.01,weatherlink.com 1.10,2013-05-02 18:24:00,
2013-05-02 14:39:00,67.1,59.0,30.24,WNW,297,6.0,10.0,74,0.00,,,0.01,weatherlink.com 1.10,2013-05-02 18:39:00,
2013-05-02 14:54:00,65.5,58.0,30.24,NW,307,4.0,6.0,77,0.00,,,0.01,weatherlink.com 1.10,2013-05-02 18:54:00,
2013-05-02 15:09:00,66.4,58.0,30.23,NNW,344,0.0,7.0,74,0.00,,,0.01,weatherlink.com 1.10,2013-05-02 19:09:00,
2013-05-02 15:24:00,64.8,57.0,30.23,SSW,207,2.0,9.0,77,0.00,,,0.01,weatherlink.com 1.10,2013-05-02 19:24:00,
2013-05-02 15:39:00,64.6,58.0,30.23,NNE,27,2.0,10.0,78,0.00,,,0.01,weatherlink.com 1.10,2013-05-02 19:39:00,
2013-05-02 15:54:00,64.7,57.0,30.22,NW,308,3.0,6.0,77,0.00,,,0.01,weatherlink.com 1.10,2013-05-02 19:54:00,
2013-05-02 16:09:00,64.1,57.0,30.22,West,278,1.0,7.0,79,0.00,,,0.01,weatherlink.com 1.10,2013-05-02 20:09:00,
2013-05-02 16:24:00,63.5,57.0,30.22,WNW,300,1.0,6.0,79,0.00,,,0.01,weatherlink.com 1.10,2013-05-02 20:24:00,
2013-05-02 16:39:00,63.5,57.0,30.21,NW,314,3.0,6.0,80,0.00,,,0.01,weatherlink.com 1.10,2013-05-02 20:39:00,
2013-05-02 16:54:00,63.4,58.0,30.21,North,9,2.0,4.0,81,0.00,,,0.01,weatherlink.com 1.10,2013-05-02 20:54:00,
2013-05-02 17:09:00,62.6,57.0,30.21,NNE,22,4.0,5.0,82,0.00,,,0.01,weatherlink.com 1.10,2013-05-02 21:09:00,
2013-05-02 17:24:00,61.8,57.0,30.21,WNW,300,0.0,6.0,84,0.00,,,0.01,weatherlink.com 1.10,2013-05-02 21:24:00,
2013-05-02 17:39:00,61.5,57.0,30.21,West,274,1.0,3.0,84,0.00,,,0.01,weatherlink.com 1.10,2013-05-02 21:39:00,
2013-05-02 17:54:00,61.6,57.0,30.21,WNW,290,1.0,2.0,85,0.00,,,0.01,weatherlink.com 1.10,2013-05-02 21:54:00,
2013-05-02 18:09:00,61.8,57.0,30.21,West,264,3.0,6.0,83,0.00,,,0.01,weatherlink.com 1.10,2013-05-02 22:09:00,
2013-05-02 18:24:00,61.2,57.0,30.20,West,259,0.0,8.0,87,0.00,,,0.01,weatherlink.com 1.10,2013-05-02 22:24:00,
2013-05-02 18:39:00,61.1,57.0,30.20,West,271,0.0,5.0,87,0.00,,,0.01,weatherlink.com 1.10,2013-05-02 22:39:00,
2013-05-02 18:54:00,61.2,57.0,30.19,WNW,285,0.0,4.0,86,0.00,,,0.01,weatherlink.com 1.10,2013-05-02 22:54:00,
2013-05-02 19:09:00,61.3,57.0,30.19,West,264,0.0,2.0,85,0.00,,,0.01,weatherlink.com 1.10,2013-05-02 23:09:00,
2013-05-02 19:24:00,61.1,57.0,30.20,West,274,1.0,3.0,86,0.00,,,0.01,weatherlink.com 1.10,2013-05-02 23:24:00,
2013-05-02 19:39:00,60.7,57.0,30.20,SW,224,1.0,4.0,86,0.00,,,0.01,weatherlink.com 1.10,2013-05-02 23:39:00,
2013-05-02 19:54:00,60.3,56.0,30.21,West,277,0.0,2.0,86,0.00,,,0.01,weatherlink.com 1.10,2013-05-02 23:54:00,
2013-05-02 20:09:00,60.1,56.0,30.20,West,281,0.0,4.0,86,0.00,,,0.01,weatherlink.com 1.10,2013-05-03 00:09:00,
2013-05-02 20:24:00,59.8,56.0,30.20,West,276,1.0,1.0,87,0.00,,,0.01,weatherlink.com 1.10,2013-05-03 00:24:00,
2013-05-02 20:39:00,59.2,56.0,30.20,West,267,0.0,1.0,88,0.00,,,0.01,weatherlink.com 1.10,2013-05-03 00:39:00,
2013-05-02 20:54:00,58.9,56.0,30.20,West,267,0.0,1.0,89,0.00,,,0.01,weatherlink.com 1.10,2013-05-03 00:54:00,
2013-05-02 21:09:00,59.0,56.0,30.21,WNW,301,0.0,5.0,89,0.00,,,0.01,weatherlink.com 1.10,2013-05-03 01:09:00,
2013-05-02 21:26:00,59.1,56.0,30.21,WNW,291,0.0,2.0,89,0.00,,,0.01,weatherlink.com 1.10,2013-05-03 01:26:00,
2013-05-02 21:39:00,59.0,56.0,30.22,WNW,285,0.0,1.0,88,0.00,,,0.01,weatherlink.com 1.10,2013-05-03 01:39:00,
2013-05-02 21:54:00,59.0,56.0,30.21,NNE,30,0.0,1.0,88,0.00,,,0.01,weatherlink.com 1.10,2013-05-03 01:54:00,
2013-05-02 22:09:00,58.9,56.0,30.21,NNE,30,0.0,0.0,89,0.00,,,0.01,weatherlink.com 1.10,2013-05-03 02:09:00,
2013-05-02 22:24:00,58.7,56.0,30.22,NE,41,0.0,1.0,89,0.00,,,0.01,weatherlink.com 1.10,2013-05-03 02:24:00,
2013-05-02 22:39:00,58.8,56.0,30.21,WNW,301,0.0,3.0,89,0.00,,,0.01,weatherlink.com 1.10,2013-05-03 02:39:00,
2013-05-02 22:54:00,59.1,55.0,30.21,NW,304,0.0,4.0,87,0.00,,,0.01,weatherlink.com 1.10,2013-05-03 02:54:00,
2013-05-02 23:09:00,59.3,55.0,30.21,NW,307,3.0,7.0,85,0.00,,,0.01,weatherlink.com 1.10,2013-05-03 03:09:00,
2013-05-02 23:24:00,59.5,55.0,30.20,WNW,291,1.0,5.0,84,0.00,,,0.01,weatherlink.com 1.10,2013-05-03 03:24:00,
2013-05-02 23:39:00,59.4,55.0,30.20,West,277,2.0,6.0,84,0.00,,,0.01,weatherlink.com 1.10,2013-05-03 03:39:00,
2013-05-02 23:54:00,59.2,55.0,30.20,West,276,3.0,4.0,85,0.00,,,0.01,weatherlink.com 1.10,2013-05-03 03:54:00,